Starlink 33553

operational
NORAD ID: 62108 Int'l Des: 2024-220 Owner: SPXS Country: US Constellation: starlink
LEOCIRCULAR

About Starlink 33553

Description loading...

Live Position

Loading 3D Globe...

Upcoming Passes

Altitude History

Altitude vs Time

uPlot chart will show altitude changes over time

Two-Line Element Set

1 62108U 24220W 25350.33685804 .00018948 00000-0 69546-3 0 9992
2 62108 43.0007 316.2624 0001199 271.5424 88.5291 15.27620310 60446
Epoch: Dec 16, 2025 • Age: 19 hours

Current Status

Altitude 483.0 km
Velocity 7.63 km/s
Sub-Earth Point 22.61°N, 33.96°W
Launch Date Nov 25, 2024
Age 1 years
Type internet

Technical Details

Classification Payload
Mass 530.00 kg
Dry Mass 500.00 kg
Total Mass 530.00 kg
Length 0.30 m
Diameter 4.10 m
Span 29.00 m
Shape Box + pan
Manufacturer SPXS
Bus Type Starlink V2MO
Phase Status In Orbit
Owner/State SPXS/US

Large Constellations

Loading constellations...